Puerto Vallarta, Mexico

9:11 PM CDT on May 23, 2018 (GMT -0500)
Lic Gustavo Diaz Ordaz International

Weather History for MMPR - May, 2018

Change the Weather History Date:

Thursday, May 17, 2018

  Actual Average Record
Temperature  
Mean Temperature 80 °F -  
Max Temperature 86 °F 85 °F 89 °F (2012)
Min Temperature 75 °F 71 °F 59 °F (2005)
Cooling Degree Days 16    
Growing Degree Days 30 (Base 50)    
Moisture  
Dew Point 75 °F    
Average Humidity 83    
Maximum Humidity 100    
Minimum Humidity 62    
Precipitation  
Precipitation 0.00 in - - ()
Sea Level Pressure  
Sea Level Pressure 29.83 in    
Wind  
Wind Speed 4 mph ()    
Max Wind Speed 14 mph    
Max Gust Speed -    
Visibility 14.6 miles    
Events      
Averages and records for this station are not official NWS values.
T = Trace of Precipitation, MM = Missing Value Source: Averaged Metar Reports

Daily Weather History Graph

Daily Weather History Graph

Search for Another Location

Airport or City:

Astronomy

May. 17, 2018 Rise Set
Actual Time 7:23 AM CDT 8:31 PM CDT
Civil Twilight 6:59 AM CDT 8:55 PM CDT
Nautical Twilight 6:30 AM CDT 9:24 PM CDT
Astronomical Twilight 6:01 AM CDT 9:53 PM CDT
Moon 9:30 AM CDT (5/17) 11:05 PM CDT (5/17)
Length of Visible Light 13h 56m
Length of Day
13h 08m
Waxing Crescent, 7% of the Moon is Illuminated
May 17
Waxing Crescent
May 21
First Quarter
May 29
Full
Jun 6
Last Quarter
Jun 13
New

Hourly Weather History & Observations

Time (CDT) Temp. Heat Index Dew Point Humidity Pressure Visibility Wind Dir Wind Speed Gust Speed Precip Events Conditions
12:47 AM 77.0 °F - 77.0 °F 100% 29.85 in 15.0 mi Calm Calm - N/A   Clear
2:40 AM 77.0 °F - 77.0 °F 100% 29.85 in 15.0 mi Calm Calm - N/A   Mostly Cloudy
3:45 AM 77.0 °F - 77.0 °F 100% 29.84 in 15.0 mi North 4.6 mph - N/A   Mostly Cloudy
4:41 AM 77.0 °F - 77.0 °F 100% 29.84 in 15.0 mi NNE 4.6 mph - N/A   Mostly Cloudy
5:43 AM 77.0 °F - 77.0 °F 100% 29.84 in 15.0 mi ENE 2.3 mph - N/A   Scattered Clouds
6:42 AM 75.2 °F - 75.2 °F 100% 29.84 in 15.0 mi NNW 3.5 mph - N/A   Mostly Cloudy
7:45 AM 75.2 °F - 75.2 °F 100% 29.84 in 15.0 mi Calm Calm - N/A   Scattered Clouds
8:46 AM 78.8 °F - 75.2 °F 89% 29.86 in 15.0 mi Calm Calm - N/A   Clear
9:50 AM 82.4 °F 88.2 °F 73.4 °F 74% 29.87 in 15.0 mi Calm Calm - N/A   Clear
10:46 AM 82.4 °F 88.2 °F 73.4 °F 74% 29.87 in 15.0 mi South 5.8 mph - N/A   Clear
11:48 AM 86.0 °F 91.8 °F 71.6 °F 62% 29.86 in 15.0 mi SW 4.6 mph - N/A   Partly Cloudy
12:42 PM 86.0 °F 91.8 °F 71.6 °F 62% 29.86 in 15.0 mi WSW 11.5 mph - N/A   Partly Cloudy
1:45 PM 86.0 °F 93.4 °F 73.4 °F 66% 29.85 in 15.0 mi SSW 11.5 mph - N/A   Partly Cloudy
2:47 PM 86.0 °F 95.1 °F 75.2 °F 70% 29.83 in 15.0 mi SW 13.8 mph - N/A   Clear
3:48 PM 86.0 °F 95.1 °F 75.2 °F 70% 29.80 in 15.0 mi SSW 13.8 mph - N/A   Clear
4:51 PM 86.0 °F 91.8 °F 71.6 °F 62% 29.79 in 15.0 mi SW 12.7 mph - N/A   Clear
5:47 PM 84.2 °F 89.6 °F 71.6 °F 66% 29.78 in 15.0 mi SW 10.4 mph - N/A   Clear
6:52 PM 84.2 °F 92.3 °F 75.2 °F 74% 29.78 in 15.0 mi SW 9.2 mph - N/A   Clear
7:42 PM 82.4 °F 89.5 °F 75.2 °F 79% 29.79 in 15.0 mi SW 9.2 mph - N/A   Clear
8:49 PM 80.6 °F 86.2 °F 75.2 °F 84% 29.81 in 15.0 mi SW 5.8 mph - N/A   Clear
9:46 PM 80.6 °F 87.1 °F 77.0 °F 89% 29.81 in 12.0 mi Calm Calm - N/A   Clear
10:40 PM 80.6 °F 87.1 °F 77.0 °F 89% 29.83 in 12.0 mi Calm Calm - N/A   Clear
11:42 PM 78.8 °F - 77.0 °F 94% 29.84 in 12.0 mi Calm Calm - N/A   Clear